Regional Weather Roundup
Issued by NWS Lake Charles, LA

Home | Current Version | Previous Version | Text Only | Print | Product List | Glossary On
Versions: 1 2 3 4 5 6 7 8 9 10 11 12 13 14 15 16 17 18 19 20 21 22 23 24 25 26 27 28 29 30 31 32 33 34 35 36 37 38 39 40 41 42 43 44 45 46 47 48 49 50
000
ASUS44 KLCH 091210
RWRLCH
REGIONAL WEATHER ROUNDUP
NATIONAL WEATHER SERVICE LAKE CHARLES LA
600 AM CST TUE FEB 09 2016

Note: "fair" indicates few or no clouds below 12,000 feet with no
significant weather and/or obstructions to visibility.


ACROSS SOUTHEAST TEXAS

CITY           SKY/WX    TMP DP  RH WIND       PRES   REMARKS
BEAUMONT       CLEAR     39  19  44 NW7       30.28R
BEAUMONT CITY  FAIR      37  20  50 W7        30.29R
ORANGE         SUNNY     40  12  32 W5        30.29R
JASPER         CLEAR     36  16  45 W3        30.28R
$$

ACROSS CENTRAL LOUISIANA

CITY           SKY/WX    TMP DP  RH WIND       PRES   REMARKS
LEESVILLE      CLEAR     39  18  41 W8        30.21R
FULLERTON      FAIR      38  18  44 CALM      30.19R
ALEXANDRIA INT CLEAR     38  19  46 NW12      30.18R
ESLER FIELD    CLEAR     39  17  41 W6        30.18R
DERIDDER         N/A     38  15  38 NW8       30.25R
OAKDALE          N/A     36  18  48 CALM      30.23R
OPELOUSAS      FAIR      37  19  48 NW9       30.21R
$$

ACROSS SOUTHWEST AND SOUTH CENTRAL LOUISIANA

CITY           SKY/WX    TMP DP  RH WIND       PRES   REMARKS
SULPHUR        SUNNY     39  17  41 MISG      30.27R
LAKE CHARLES   CLEAR     42  16  34 NW9       30.25R
CHENNAULT INT  NOT AVBL
CAMERON PHI    SUNNY     41  25  52 NW9       30.29R
DEQUINCY       FAIR      35  19  53 CALM      30.25R
JENNINGS       FAIR      37  21  52 NW10      30.23R
LAFAYETTE      CLEAR     41  18  39 NW12      30.21R
NEW IBERIA     CLEAR     38  23  55 W8        30.22R
ABBEVILLE      FAIR      35  24  65 W8        30.22R WCI  28
PATTERSON      CLEAR     39  19  45 NW8       30.20R
SALT POINT       N/A     45  25  45 NW10G29   30.20R
$$

SELECTED SITES ACROSS THE REGION

CITY           SKY/WX    TMP DP  RH WIND       PRES   REMARKS
HOUSTON BUSH   PTCLDY    41  16  36 W5        30.32R
HOUSTON HOBBY  PTCLDY    44  15  31 NW6       30.31R
GALVESTON      CLEAR     44  26  49 W12       30.33R
COLLEGE STAT   CLEAR     38  15  39 N8        30.34R
CONROE         CLEAR     37  17  44 NW8       30.32R
HUNTSVILLE     CLEAR     40  13  33 NW8       30.30R
LUFKIN         CLEAR     34  16  47 NW3       30.27R
SHREVEPORT     CLEAR     38  17  42 W10       30.19S
MONROE         CLEAR     35  18  49 W9        30.15R WCI  28
NATCHEZ MS     CLEAR     36  16  44 W9        30.14S WCI  29
BATON ROUGE    CLEAR     40  18  41 W9        30.17R
N.O. INTL ARPT PTCLDY    41  19  41 W10       30.16R
SLIDELL        CLEAR     41  18  39 VRB5      30.13R
$$

MARINE REPORTS

STATION/POSITION TIME  SKY/WX   TEMP    WIND        PRES    VSBY
                                AIR SEA DIR/SP/G
                 (UTC)          (F)     (DEG/KT/KT) (MB)    (MI)
BUOY 30 S HIGH I 1150            52 56  320/ 19/ 23 1025.6R
WVE H/P(F/S)=  2/ 3

SEA RIM ST PARK  1200            39     320/  8/  9 1026.1R
PORT ARTHUR      1100               54  320/ 10/ 14 1024.4R
SABINE PASS N    1100            46 55  320/ 12/ 19 1025.8R
TEXAS POINT      NOT AVBL
CALCASIEU PASS   1100            42 53  340/ 11/ 14 1022.9R
LK CHARLES BEACH 1100            43 51              1024.2R
MARSH ISLAND     NOT AVBL
FRESH WATER LOCK 1100            44 53  290/ 11/ 17 1022.6R
AMERADA PASS     1100            47 49  280/ 15/ 20 1021.9R
$$



USA.gov is the U.S. government's official web portal to all federal, state and local government web resources and services.